D4355 Weather Reports


time (UTC)temp
C
wind
direction
speed
KPH
gust
KPH
rain 1hr
cm
rain 24hr
cm
rain mn
cm
humidity
%
barometer
mb
20260505153056 11 236 4.8 9.7 0.00 0.05 0.03 93 1015.9
20260505153029 11 227 4.8 0.0 0.00 0.00 0.03 94 1016.6
20260505151556 11 229 3.2 8.0 0.00 0.05 0.03 93 1016.0
20260505151541 11 229 4.8 0.0 0.00 0.00 0.03 94 1016.6
20260505150116 11 219 4.8 0.0 0.00 0.00 0.03 94 1016.5
20260505150105 11 219 3.2 8.0 0.00 0.05 0.03 93 1015.9
20260505140111 11 159 0.0 0.0 0.00 0.00 0.03 94 1016.1
20260505130111 10 161 0.0 8.0 0.03 0.05 0.03 93 1015.0
20260505124556 10 199 3.2 6.4 0.03 0.05 0.03 93 1014.9
20260505124532 10 200 3.2 0.0 0.00 0.00 0.03 93 1015.6
20260505123102 10 202 0.0 8.0 0.00 0.03 0.00 93 1015.0
20260505123048 10 217 3.2 0.0 0.00 0.00 0.00 93 1015.5
20260505121556 10 236 3.2 6.4 0.00 0.03 0.00 93 1015.0
20260505121551 10 236 4.8 0.0 0.00 0.00 0.00 93 1015.5
20260505120104 10 213 3.2 11.3 0.00 0.03 0.00 93 1015.0
20260505120050 10 207 4.8 0.0 0.00 0.00 0.00 93 1015.5
20260505114602 11 185 4.8 0.0 0.00 0.00 0.00 94 1015.5
20260505114556 11 185 4.8 11.3 0.00 0.03 0.00 93 1015.0
20260505113126 11 169 4.8 0.0 0.00 0.00 0.00 93 1015.4
20260505113112 11 169 3.2 11.3 0.00 0.03 0.00 93 1014.9
20260505111609 11 211 4.8 0.0 0.00 0.00 0.00 93 1015.4
20260505111556 11 154 4.8 9.7 0.00 0.03 0.00 93 1014.9
20260505110132 10 198 6.4 0.0 0.00 0.00 0.00 93 1015.5
20260505110116 11 198 6.4 9.7 0.00 0.03 0.00 93 1015.0
20260505101559 11 172 4.8 11.3 0.00 0.03 0.00 93 1014.8
20260505101552 11 206 6.4 0.0 0.00 0.00 0.00 94 1015.3
20260505100137 11 180 3.2 0.0 0.00 0.00 0.00 93 1015.3
20260505100056 11 192 4.8 8.0 0.00 0.03 0.00 93 1014.9
20260505094618 11 182 3.2 11.3 0.00 0.03 0.00 93 1014.9
20260505094521 11 177 4.8 0.0 0.00 0.00 0.00 93 1015.3
20260505093059 11 236 3.2 11.3 0.00 0.03 0.00 93 1014.7
20260505093037 11 236 4.8 0.0 0.00 0.00 0.00 93 1015.2
20260505091605 11 180 3.2 11.3 0.00 0.03 0.00 93 1014.7
20260505091601 10 180 4.8 0.0 0.00 0.00 0.00 93 1015.2
20260505090119 11 171 6.4 0.0 0.00 0.00 0.00 93 1015.2
20260505090105 11 220 6.4 12.9 0.00 0.03 0.00 93 1014.6
20260505084635 11 207 6.4 0.0 0.00 0.00 0.00 93 1015.1
20260505084559 11 229 4.8 12.9 0.00 0.03 0.00 93 1014.6
20260505083105 11 191 6.4 12.9 0.00 0.03 0.00 93 1014.4
20260505083015 11 234 6.4 0.0 0.00 0.00 0.00 93 1015.0
20260505081600 11 205 4.8 12.9 0.00 0.03 0.00 93 1014.4
20260505081550 11 194 6.4 0.0 0.00 0.00 0.00 93 1015.0
20260505080124 11 198 8.0 0.0 0.00 0.00 0.00 93 1015.1
20260505080056 11 253 6.4 12.9 0.00 0.03 0.00 92 1014.5
20260505074627 11 222 8.0 0.0 0.00 0.00 0.00 93 1015.1
20260505074556 11 165 6.4 14.5 0.00 0.05 0.00 92 1014.4
20260505073103 11 185 3.2 9.7 0.00 0.05 0.00 92 1014.5
20260505073023 11 245 4.8 0.0 0.00 0.00 0.00 93 1015.0
20260505071601 11 178 3.2 0.0 0.00 0.00 0.00 93 1015.1
20260505071558 11 178 1.6 9.7 0.00 0.05 0.00 92 1014.6
20260505070054 11 217 3.2 16.1 0.00 0.05 0.00 92 1014.5
20260505070003 11 240 8.0 0.0 0.00 0.00 0.00 92 1015.0
20260505064556 11 230 4.8 11.3 0.03 0.05 0.05 92 1014.6
20260505064550 11 230 6.4 0.0 0.00 0.00 0.05 92 1015.1
20260505063056 11 208 6.4 12.9 0.03 0.05 0.05 92 1014.6
20260505063052 11 208 8.0 0.0 0.00 0.00 0.05 92 1015.2
20260505061602 11 232 6.4 0.0 0.00 0.00 0.05 92 1015.1
20260505061557 11 217 4.8 12.9 0.03 0.05 0.05 91 1014.7
20260505060135 11 192 6.4 0.0 0.00 0.00 0.05 92 1015.2
20260505054557 11 194 4.8 11.3 0.00 0.03 0.03 91 1014.7
20260505054512 11 169 6.4 0.0 0.00 0.00 0.03 91 1015.1
20260505053057 11 175 6.4 12.9 0.00 0.03 0.03 91 1014.7
20260505053031 11 175 6.4 0.0 0.00 0.00 0.03 91 1015.1
20260505051604 11 200 6.4 0.0 0.00 0.00 0.03 91 1015.2
20260505051559 11 188 6.4 12.9 0.00 0.03 0.03 90 1014.8
20260505050104 11 214 6.4 0.0 0.00 0.00 0.03 90 1015.2
20260505041554 11 202 6.4 14.5 0.00 0.03 0.03 88 1014.4
20260505041509 11 196 6.4 0.0 0.00 0.00 0.03 89 1014.8
20260505040103 11 242 6.4 17.7 0.00 0.03 0.03 88 1014.3
20260505040052 11 234 6.4 0.0 0.00 0.00 0.03 88 1014.6
20260505034611 11 237 8.0 0.0 0.00 0.00 0.03 88 1014.5
20260505034556 11 232 6.4 17.7 0.00 0.03 0.03 87 1014.1
20260505033125 11 223 9.7 0.0 0.00 0.00 0.03 88 1014.3
20260505033057 11 221 8.0 16.1 0.00 0.03 0.03 87 1013.9
20260505031601 11 200 6.4 14.5 0.00 0.03 0.03 87 1013.7
20260505031505 11 238 8.0 0.0 0.00 0.00 0.03 88 1014.0
20260505030100 12 192 4.8 16.1 0.00 0.03 0.03 87 1013.8
20260505030024 12 213 6.4 0.0 0.00 0.00 0.03 87 1014.1
20260505024556 12 247 8.0 14.5 0.00 0.03 0.03 86 1013.7
20260505024540 12 190 8.0 0.0 0.00 0.00 0.03 87 1014.1
20260505023059 12 227 8.0 0.0 0.00 0.00 0.03 87 1014.1
20260505023056 12 211 6.4 16.1 0.00 0.03 0.03 87 1013.8
20260505021606 12 202 9.7 0.0 0.00 0.00 0.03 87 1014.0
20260505021556 12 192 11.3 19.3 0.00 0.03 0.03 86 1013.6
20260505020123 12 213 8.0 0.0 0.00 0.00 0.03 87 1014.0
20260505020057 12 233 8.0 16.1 0.00 0.03 0.03 86 1013.6
20260505014605 12 216 6.4 17.7 0.00 0.03 0.03 86 1013.7
20260505014504 12 227 9.7 0.0 0.00 0.00 0.03 87 1014.1
20260505013100 12 237 11.3 20.9 0.00 0.03 0.03 85 1013.7
20260505013008 12 213 11.3 0.0 0.00 0.00 0.03 86 1014.1
20260505011557 12 241 11.3 19.3 0.00 0.03 0.03 85 1013.8
20260505011514 12 218 11.3 0.0 0.00 0.00 0.03 86 1014.3
20260505010056 12 202 11.3 19.3 0.00 0.03 0.03 86 1013.9
20260505010048 12 231 11.3 0.0 0.00 0.00 0.03 86 1014.4
20260505004557 12 238 11.3 19.3 0.00 0.03 0.03 86 1014.2
20260505004548 12 226 12.9 0.0 0.00 0.00 0.03 86 1014.6
20260505003056 12 203 11.3 22.5 0.00 0.03 0.03 86 1014.4
20260505001558 12 215 11.3 0.0 0.00 0.00 0.03 86 1014.8
20260505000105 13 242 11.3 0.0 0.00 0.00 0.03 86 1014.7
20260505000058 13 242 9.7 20.9 0.00 0.03 0.03 86 1014.3
20260504234559 13 182 11.3 0.0 0.00 0.00 0.03 86 1014.8
20260504234555 13 197 11.3 20.9 0.00 0.03 0.03 86 1014.3
20260504233108 13 236 12.9 0.0 0.00 0.00 0.03 86 1014.6
20260504233055 13 200 12.9 22.5 0.00 0.03 0.03 86 1014.2
20260504231611 13 200 14.5 0.0 0.00 0.00 0.03 87 1014.7
20260504231558 13 186 14.5 22.5 0.00 0.03 0.03 86 1014.4
20260504230112 13 211 14.5 0.0 0.00 0.00 0.03 86 1014.7
20260504230055 13 189 12.9 25.7 0.00 0.03 0.03 86 1014.4
20260504224628 13 205 14.5 0.0 0.00 0.00 0.03 86 1014.9
20260504224554 13 180 12.9 25.7 0.00 0.03 0.03 86 1014.5
20260504223057 13 233 14.5 25.7 0.00 0.03 0.03 86 1014.7
20260504223047 13 229 16.1 0.0 0.00 0.00 0.03 87 1015.0
20260504221558 13 239 14.5 0.0 0.00 0.00 0.03 86 1015.1
20260504221555 13 239 12.9 30.6 0.00 0.03 0.03 86 1014.8
20260504220124 13 227 14.5 0.0 0.00 0.00 0.03 87 1015.3
20260504220056 13 233 16.1 29.0 0.00 0.03 0.03 87 1014.9
20260504214605 13 211 16.1 27.4 0.00 0.03 0.03 87 1014.8
20260504214501 13 243 16.1 0.0 0.00 0.00 0.03 87 1015.2
20260504213140 13 211 14.5 29.0 0.00 0.03 0.03 87 1014.8
20260504213022 13 215 16.1 0.0 0.00 0.00 0.03 87 1015.2
20260504211556 13 224 12.9 27.4 0.00 0.03 0.03 88 1014.9
20260504211537 13 205 12.9 0.0 0.00 0.00 0.03 88 1015.3
20260504210106 12 207 12.9 25.7 0.00 0.03 0.03 89 1015.0
20260504210002 12 232 14.5 0.0 0.00 0.00 0.03 89 1015.3
20260504204610 12 258 12.9 25.7 0.00 0.03 0.03 89 1015.0
20260504204527 12 246 14.5 0.0 0.00 0.00 0.03 90 1015.5
20260504203135 12 225 11.3 22.5 0.00 0.03 0.03 89 1015.0
20260504203041 12 234 12.9 0.0 0.00 0.00 0.03 90 1015.6
20260504201610 12 226 12.9 20.9 0.00 0.03 0.03 89 1015.0
20260504201601 12 252 12.9 0.0 0.00 0.00 0.03 89 1015.5
20260504200100 12 232 9.7 20.9 0.00 0.03 0.03 90 1014.9
20260504200006 12 229 12.9 0.0 0.00 0.00 0.03 90 1015.4
20260504194606 12 222 12.9 25.7 0.00 0.03 0.03 89 1015.0
20260504194513 12 236 12.9 0.0 0.00 0.00 0.03 90 1015.3
20260504193058 12 179 12.9 29.0 0.00 0.03 0.03 90 1014.8
20260504193043 12 225 12.9 0.0 0.00 0.00 0.03 91 1015.3
20260504191608 12 231 14.5 0.0 0.00 0.00 0.03 91 1015.2
20260504191605 12 232 12.9 27.4 0.00 0.03 0.03 91 1014.8
20260504190058 12 203 16.1 30.6 0.00 0.03 0.03 92 1014.6
20260504190002 12 198 16.1 0.0 0.00 0.00 0.03 92 1015.0
20260504184602 11 173 12.9 27.4 0.00 0.03 0.03 92 1014.7
20260504184527 12 190 12.9 0.0 0.00 0.00 0.03 93 1015.1
20260504183105 11 213 12.9 25.7 0.00 0.03 0.03 93 1014.7
20260504183044 11 183 14.5 0.0 0.00 0.00 0.03 93 1015.1
20260504181609 11 193 14.5 0.0 0.00 0.00 0.03 94 1015.1
20260504181555 11 227 16.1 32.2 0.00 0.03 0.03 93 1014.7
20260504180121 11 211 16.1 0.0 0.00 0.00 0.03 94 1015.1
20260504180108 11 177 12.9 24.1 0.00 0.03 0.03 93 1014.7
20260504174555 11 206 11.3 29.0 0.00 0.03 0.03 94 1014.5
20260504174513 11 230 14.5 0.0 0.00 0.00 0.03 94 1015.0
20260504173126 11 211 12.9 0.0 0.00 0.00 0.03 94 1015.0
20260504173107 11 196 12.9 22.5 0.00 0.03 0.03 94 1014.6
20260504171601 11 188 12.9 24.1 0.00 0.03 0.03 94 1014.5
20260504171508 11 188 12.9 0.0 0.00 0.00 0.03 94 1015.0
20260504160106 11 215 11.3 27.4 0.00 0.03 0.03 94 1014.2